Home   Weather   Strausberg   Past weeks

Flag for Germany Past Weather in Strausberg, Brandenburg, Germany — Yesterday and Last 2 Weeks

Now
37 °F

Clear.


Feels Like: 32 °F
Forecast: 34 / 53 °F
Wind: 7 mph from West

Location: Berlin-Schoenefeld

Current Time: Apr 24, 2017 at 12:07:48 am

Latest Report: Apr 23, 2017 at 11:50 pm


Visibility: 10 mi

Pressure: 30.12 "Hg

Humidity: 81%

Dew Point: 32 °F

Location of StrausbergLocation

Past Weather in Strausberg — Graph

°F

Strausberg Temperature Yesterday

Maximum temperature yesterday: 48 °F (at 3:20 pm)
Minimum temperature yesterday: 39 °F (at 1:20 am)
Average temperature yesterday: 43 °F

High & Low Weather Summary for the Past Weeks

 TemperatureHumidityPressure
High70 °F (Apr 10, 11:50 am)100% (Apr 17, 12:20 am)30.57 "Hg (Apr 17, 12:20 am)
Low28 °F (Apr 20, 4:20 am)34% (Apr 20, 2:20 pm)29.74 "Hg (Apr 12, 8:50 pm)
Average45 °F71%30.08 "Hg
* Reported Apr 8 10:20 pm — Apr 23 10:50 pm, Strausberg, Weather by CustomWeather, © 2017

Note: Actual official high and low records may vary slightly from our data, if they occured in-between our weather recording intervals... More about our weather records

Advertising

Strausberg Weather History for the Previous 24 Hours

Scroll right to see more
 ConditionsComfort  
Time TempWeatherWind HumidityBarometerVisibility
10:50 pm
Sun, Apr 23
41 °FClear.15 mph70%30.12 "Hg10 mi
10:20 pm43 °FClear.12 mph71%30.12 "Hg10 mi
9:50 pm43 °FPassing clouds.9 mph71%30.09 "HgN/A
8:50 pm43 °FPassing clouds.10 mph71%30.09 "HgN/A
8:20 pm41 °FPassing clouds.10 mph76%30.09 "HgN/A
7:50 pm43 °FPassing clouds.10 mph71%30.07 "HgN/A
7:20 pm43 °FPassing clouds.17 mph71%30.07 "HgN/A
6:50 pm45 °FPassing clouds.16 mph66%30.07 "HgN/A
6:20 pm45 °FScattered clouds.20 mph71%30.07 "HgN/A
5:50 pm45 °FScattered showers. Scattered clouds.18 mph76%30.07 "HgN/A
5:20 pm41 °FSprinkles. Scattered clouds.21 mph81%30.07 "HgN/A
4:50 pm46 °FScattered showers. Scattered clouds.21 mph66%30.07 "HgN/A
4:20 pm45 °FSprinkles. Scattered clouds.22 mph76%30.07 "HgN/A
3:50 pm48 °FScattered showers. Partly sunny.24 mph62%30.04 "HgN/A
3:20 pm48 °FScattered clouds.23 mph58%30.04 "HgN/A
2:50 pm46 °FScattered clouds.24 mph66%30.07 "HgN/A
2:20 pm46 °FScattered showers. Scattered clouds.21 mph66%30.07 "HgN/A
1:50 pm43 °FScattered showers. Scattered clouds.22 mph76%30.07 "HgN/A
1:20 pm46 °FSprinkles. Scattered clouds.22 mph66%30.04 "HgN/A
12:50 pm46 °FSprinkles. Scattered clouds.10 mph82%30.07 "HgN/A
12:20 pm45 °FScattered showers. Scattered clouds.12 mph81%30.07 "HgN/A
11:50 am39 °FSprinkles. Partly sunny.26 mph87%30.09 "HgN/A
11:20 am43 °FSprinkles. Broken clouds.14 mph81%30.09 "HgN/A
10:50 am45 °FPartly sunny.17 mph76%30.09 "HgN/A
10:20 am43 °FLight rain. Partly sunny.17 mph87%30.09 "HgN/A
9:50 am43 °FLight rain. Partly sunny.17 mph81%30.07 "HgN/A
9:20 am41 °FLight rain. Partly sunny.16 mph87%30.07 "HgN/A
8:50 am43 °FLight rain. Partly sunny.14 mph81%30.07 "HgN/A
8:20 am41 °FLight rain. Partly sunny.13 mph87%30.07 "HgN/A
7:50 am41 °FLight rain. Partly sunny.14 mph87%30.07 "HgN/A
7:20 am41 °FPartly sunny.12 mph81%30.07 "HgN/A
6:50 am41 °FBroken clouds.14 mph81%30.04 "HgN/A
6:20 am41 °FBroken clouds.15 mph81%30.04 "HgN/A
5:50 am41 °FPassing clouds.15 mph81%30.04 "HgN/A
4:50 am41 °FPassing clouds.15 mph81%30.04 "HgN/A
4:20 am41 °FPassing clouds.18 mph81%30.04 "HgN/A
3:50 am41 °FPartly cloudy.14 mph81%30.04 "HgN/A
3:20 am39 °FPassing clouds.13 mph87%30.04 "HgN/A
2:50 am39 °FPassing clouds.12 mph87%30.04 "HgN/A
2:20 am39 °FClear.14 mph87%30.04 "Hg10 mi
1:50 am39 °FClear.14 mph87%30.04 "Hg10 mi
1:20 am39 °FPassing clouds.15 mph87%30.04 "HgN/A
12:50 am41 °FPassing clouds.16 mph81%30.04 "HgN/A
12:20 am41 °FPassing clouds.15 mph81%30.04 "HgN/A
Weather by CustomWeather, © 2017

See weather overviewHow to use our weather pages